| time (UTC) | temp F | wind direction | speed MPH | gust MPH | rain 1hr in | rain 24hr in | rain mn in | humidity % | barometer mb |
| 20260503005740 | 49 | 96 | 0.0 | 0.0 | 0.00 | 0.06 | 0.06 | 92 | 1011.4 |
| 20260503005237 | 49 | 99 | 0.0 | 0.0 | 0.00 | 0.06 | 0.06 | 92 | 1011.3 |
| 20260503004733 | 49 | 99 | 0.0 | 0.0 | 0.00 | 0.06 | 0.06 | 91 | 1011.5 |
| 20260503004232 | 49 | 99 | 0.0 | 0.0 | 0.00 | 0.06 | 0.06 | 91 | 1011.4 |
| 20260503003728 | 50 | 99 | 0.0 | 0.0 | 0.00 | 0.06 | 0.06 | 91 | 1011.3 |
| 20260503003226 | 50 | 99 | 0.0 | 0.0 | 0.00 | 0.06 | 0.06 | 91 | 1011.2 |
| 20260503002722 | 50 | 99 | 0.0 | 0.0 | 0.00 | 0.06 | 0.06 | 91 | 1011.3 |
| 20260503002219 | 50 | 99 | 0.0 | 0.0 | 0.00 | 0.06 | 0.06 | 90 | 1011.1 |
| 20260503001715 | 50 | 99 | 0.0 | 0.0 | 0.00 | 0.06 | 0.06 | 90 | 1011.1 |
| 20260503001212 | 50 | 99 | 0.0 | 0.0 | 0.00 | 0.06 | 0.06 | 90 | 1011.1 |
| 20260503000710 | 50 | 99 | 0.0 | 0.0 | 0.00 | 0.06 | 0.06 | 89 | 1011.1 |
| 20260503000207 | 50 | 99 | 0.0 | 0.0 | 0.00 | 0.06 | 0.06 | 89 | 1011.1 |
| 20260502235704 | 50 | 99 | 0.0 | 0.0 | 0.00 | 0.06 | 0.06 | 89 | 1011.1 |
| 20260502235201 | 50 | 99 | 0.0 | 0.0 | 0.00 | 0.06 | 0.06 | 89 | 1011.3 |
| 20260502234657 | 50 | 99 | 0.0 | 0.0 | 0.00 | 0.06 | 0.06 | 88 | 1011.2 |
| 20260502234155 | 51 | 99 | 0.0 | 0.0 | 0.00 | 0.06 | 0.06 | 88 | 1011.2 |
| 20260502233650 | 51 | 103 | 0.0 | 0.0 | 0.00 | 0.06 | 0.06 | 88 | 1011.1 |
| 20260502233147 | 51 | 103 | 0.0 | 1.0 | 0.00 | 0.06 | 0.06 | 88 | 1011.1 |
| 20260502232643 | 51 | 104 | 0.0 | 0.0 | 0.00 | 0.06 | 0.06 | 88 | 1011.3 |
| 20260502232141 | 51 | 104 | 0.0 | 0.0 | 0.00 | 0.06 | 0.06 | 87 | 1011.4 |
| 20260502231637 | 51 | 104 | 0.0 | 0.0 | 0.00 | 0.06 | 0.06 | 87 | 1011.4 |
| 20260502231135 | 51 | 104 | 0.0 | 0.0 | 0.00 | 0.06 | 0.06 | 87 | 1011.3 |
| 20260502230633 | 51 | 102 | 0.0 | 1.0 | 0.00 | 0.06 | 0.06 | 86 | 1011.3 |
| 20260502230132 | 51 | 77 | 0.0 | 0.0 | 0.00 | 0.06 | 0.06 | 86 | 1011.4 |
| 20260502225627 | 51 | 96 | 0.0 | 0.0 | 0.00 | 0.06 | 0.06 | 86 | 1011.3 |
| 20260502225124 | 51 | 92 | 0.0 | 1.0 | 0.00 | 0.06 | 0.06 | 86 | 1011.4 |
| 20260502224621 | 51 | 83 | 0.0 | 1.0 | 0.00 | 0.06 | 0.06 | 86 | 1011.3 |
| 20260502224117 | 51 | 98 | 0.0 | 2.0 | 0.00 | 0.06 | 0.06 | 85 | 1011.4 |
| 20260502223615 | 51 | 92 | 0.0 | 0.0 | 0.00 | 0.06 | 0.06 | 86 | 1011.2 |
| 20260502223114 | 51 | 84 | 0.0 | 2.0 | 0.00 | 0.06 | 0.06 | 85 | 1011.3 |
| 20260502222610 | 51 | 87 | 0.0 | 3.0 | 0.00 | 0.06 | 0.06 | 85 | 1011.3 |
| 20260502222107 | 51 | 98 | 0.0 | 0.0 | 0.00 | 0.06 | 0.06 | 85 | 1011.1 |
| 20260502221602 | 51 | 98 | 0.0 | 0.0 | 0.00 | 0.06 | 0.06 | 84 | 1011.3 |
| 20260502221100 | 51 | 94 | 0.0 | 0.0 | 0.00 | 0.06 | 0.06 | 84 | 1011.2 |
| 20260502220555 | 51 | 96 | 0.0 | 0.0 | 0.00 | 0.06 | 0.06 | 85 | 1011.2 |
| 20260502220052 | 51 | 69 | 0.0 | 0.0 | 0.00 | 0.06 | 0.06 | 84 | 1011.0 |
| 20260502215549 | 51 | 84 | 0.0 | 2.0 | 0.00 | 0.06 | 0.06 | 84 | 1011.1 |
| 20260502215046 | 51 | 69 | 0.0 | 0.0 | 0.00 | 0.06 | 0.06 | 85 | 1011.0 |
| 20260502214543 | 51 | 69 | 0.0 | 0.0 | 0.00 | 0.06 | 0.06 | 84 | 1011.2 |
| 20260502214041 | 51 | 94 | 0.0 | 0.0 | 0.00 | 0.06 | 0.06 | 84 | 1011.3 |
| 20260502213537 | 52 | 78 | 0.0 | 1.0 | 0.00 | 0.06 | 0.06 | 84 | 1011.2 |
| 20260502213035 | 52 | 85 | 0.0 | 0.0 | 0.00 | 0.06 | 0.06 | 84 | 1011.3 |
| 20260502212534 | 52 | 89 | 0.0 | 2.0 | 0.00 | 0.06 | 0.06 | 83 | 1011.1 |
| 20260502212031 | 52 | 76 | 0.0 | 0.0 | 0.00 | 0.06 | 0.06 | 84 | 1011.0 |
| 20260502211526 | 52 | 87 | 0.0 | 2.0 | 0.00 | 0.06 | 0.06 | 84 | 1011.3 |
| 20260502211024 | 51 | 75 | 0.0 | 0.0 | 0.00 | 0.06 | 0.06 | 84 | 1011.1 |
| 20260502210521 | 51 | 72 | 0.0 | 2.0 | 0.00 | 0.06 | 0.06 | 84 | 1011.1 |
| 20260502210018 | 51 | 98 | 1.0 | 2.0 | 0.00 | 0.06 | 0.06 | 84 | 1011.1 |
| 20260502205514 | 51 | 47 | 0.0 | 1.0 | 0.00 | 0.06 | 0.06 | 85 | 1011.2 |
| 20260502205012 | 51 | 92 | 0.0 | 0.0 | 0.00 | 0.06 | 0.06 | 85 | 1011.1 |
| 20260502204508 | 51 | 76 | 0.0 | 2.0 | 0.00 | 0.06 | 0.06 | 84 | 1011.1 |
| 20260502204007 | 51 | 113 | 1.0 | 3.0 | 0.00 | 0.06 | 0.06 | 83 | 1011.0 |
| 20260502203503 | 52 | 87 | 0.0 | 0.0 | 0.00 | 0.06 | 0.06 | 84 | 1011.2 |
| 20260502203000 | 52 | 83 | 0.0 | 0.0 | 0.00 | 0.06 | 0.06 | 84 | 1011.2 |
| 20260502202456 | 52 | 114 | 0.0 | 1.0 | 0.00 | 0.06 | 0.06 | 84 | 1011.4 |
| 20260502201955 | 52 | 108 | 0.0 | 0.0 | 0.00 | 0.06 | 0.06 | 85 | 1011.2 |
| 20260502201450 | 52 | 119 | 0.0 | 4.0 | 0.00 | 0.06 | 0.06 | 83 | 1011.5 |
| 20260502200947 | 52 | 83 | 0.0 | 1.0 | 0.00 | 0.06 | 0.06 | 85 | 1011.4 |
| 20260502200443 | 52 | 118 | 1.0 | 3.0 | 0.00 | 0.06 | 0.06 | 84 | 1011.5 |
| 20260502195940 | 51 | 110 | 0.0 | 0.0 | 0.00 | 0.06 | 0.06 | 85 | 1011.6 |
| 20260502195438 | 51 | 95 | 0.0 | 2.0 | 0.00 | 0.06 | 0.06 | 85 | 1011.7 |
| 20260502194934 | 51 | 95 | 0.0 | 4.0 | 0.00 | 0.06 | 0.06 | 85 | 1011.6 |
| 20260502194431 | 51 | 97 | 0.0 | 3.0 | 0.00 | 0.06 | 0.06 | 86 | 1011.9 |
| 20260502193926 | 51 | 106 | 0.0 | 1.0 | 0.00 | 0.06 | 0.06 | 86 | 1011.9 |
| 20260502193424 | 51 | 82 | 0.0 | 0.0 | 0.00 | 0.06 | 0.06 | 87 | 1011.6 |
| 20260502192919 | 51 | 87 | 0.0 | 0.0 | 0.00 | 0.06 | 0.06 | 88 | 1011.9 |
| 20260502192416 | 51 | 104 | 1.0 | 2.0 | 0.00 | 0.06 | 0.06 | 88 | 1011.8 |
| 20260502191914 | 51 | 102 | 0.0 | 3.0 | 0.00 | 0.06 | 0.06 | 88 | 1012.0 |
| 20260502191412 | 51 | 141 | 1.0 | 4.0 | 0.00 | 0.06 | 0.06 | 88 | 1011.9 |
| 20260502190909 | 51 | 66 | 1.0 | 3.0 | 0.00 | 0.06 | 0.06 | 89 | 1011.9 |
| 20260502190406 | 51 | 97 | 0.0 | 1.0 | 0.00 | 0.06 | 0.06 | 89 | 1011.9 |
| 20260502185902 | 51 | 65 | 0.0 | 2.0 | 0.00 | 0.06 | 0.06 | 89 | 1012.2 |
| 20260502185357 | 51 | 80 | 0.0 | 1.0 | 0.00 | 0.06 | 0.06 | 91 | 1012.2 |
| 20260502184855 | 50 | 110 | 0.0 | 2.0 | 0.00 | 0.06 | 0.06 | 90 | 1012.1 |
| 20260502184350 | 50 | 72 | 0.0 | 2.0 | 0.00 | 0.06 | 0.06 | 90 | 1012.3 |
| 20260502183847 | 50 | 103 | 1.0 | 3.0 | 0.00 | 0.06 | 0.06 | 89 | 1012.4 |
| 20260502183343 | 50 | 103 | 0.0 | 1.0 | 0.00 | 0.06 | 0.06 | 90 | 1012.6 |
| 20260502182838 | 50 | 105 | 0.0 | 1.0 | 0.00 | 0.06 | 0.06 | 90 | 1012.5 |
| 20260502182334 | 50 | 91 | 0.0 | 2.0 | 0.00 | 0.06 | 0.06 | 91 | 1012.2 |
| 20260502181831 | 50 | 107 | 1.0 | 2.0 | 0.00 | 0.06 | 0.06 | 90 | 1012.4 |
| 20260502181330 | 50 | 105 | 0.0 | 0.0 | 0.00 | 0.06 | 0.06 | 90 | 1012.5 |
| 20260502180827 | 50 | 116 | 0.0 | 1.0 | 0.07 | 0.06 | 0.06 | 90 | 1012.3 |
| 20260502180324 | 50 | 81 | 0.0 | 2.0 | 0.00 | 0.05 | 0.05 | 89 | 1012.4 |
| 20260502170243 | 51 | 76 | 0.0 | 1.0 | 0.05 | 0.03 | 0.03 | 88 | 1012.7 |
| 20260502164231 | 52 | 86 | 0.0 | 0.0 | 0.07 | 0.02 | 0.02 | 86 | 1012.6 |
| 20260502163726 | 52 | 89 | 0.0 | 0.0 | 0.05 | 0.01 | 0.01 | 83 | 1012.7 |
| 20260502163223 | 52 | 86 | 0.0 | 0.0 | 0.00 | 0.00 | 0.00 | 82 | 1012.9 |
| 20260502162720 | 52 | 82 | 0.0 | 0.0 | 0.00 | 0.00 | 0.00 | 80 | 1012.8 |
| 20260502162217 | 53 | 80 | 0.0 | 0.0 | 0.00 | 0.00 | 0.00 | 75 | 1012.6 |
| 20260502161714 | 53 | 83 | 0.0 | 1.0 | 0.00 | 0.00 | 0.00 | 70 | 1012.7 |
| 20260502161210 | 53 | 77 | 0.0 | 3.0 | 0.00 | 0.00 | 0.00 | 73 | 1012.7 |
| 20260502160709 | 54 | 92 | 0.0 | 1.0 | 0.00 | 0.00 | 0.00 | 77 | 1012.7 |
| 20260502160207 | 55 | 81 | 0.0 | 1.0 | 0.00 | 0.00 | 0.00 | 73 | 1012.6 |
| 20260502152120 | 56 | 88 | 0.0 | 2.0 | 0.00 | 0.00 | 0.00 | 68 | 1012.8 |
| 20260502151618 | 56 | 99 | 0.0 | 1.0 | 0.00 | 0.00 | 0.00 | 70 | 1012.6 |
| 20260502151115 | 56 | 87 | 0.0 | 1.0 | 0.00 | 0.00 | 0.00 | 69 | 1012.8 |
| 20260502150613 | 56 | 86 | 0.0 | 0.0 | 0.00 | 0.00 | 0.00 | 71 | 1013.1 |
| 20260502150108 | 55 | 85 | 1.0 | 2.0 | 0.00 | 0.00 | 0.00 | 71 | 1012.7 |
| 20260502130457 | 51 | 70 | 0.0 | 0.0 | 0.00 | 0.00 | 0.00 | 81 | 1013.6 |
| 20260502123440 | 50 | 73 | 0.0 | 0.0 | 0.00 | 0.00 | 0.00 | 82 | 1013.5 |
| 20260502122937 | 50 | 97 | 0.0 | 0.0 | 0.00 | 0.00 | 0.00 | 82 | 1013.5 |
| 20260502122433 | 49 | 66 | 0.0 | 0.0 | 0.00 | 0.00 | 0.00 | 83 | 1013.8 |
| 20260502121931 | 49 | 66 | 0.0 | 0.0 | 0.00 | 0.00 | 0.00 | 83 | 1013.7 |
| 20260502121428 | 49 | 68 | 0.0 | 0.0 | 0.00 | 0.00 | 0.00 | 83 | 1013.7 |
| 20260502120926 | 49 | 84 | 0.0 | 0.0 | 0.00 | 0.00 | 0.00 | 84 | 1013.6 |
| 20260502120422 | 49 | 70 | 0.0 | 0.0 | 0.00 | 0.00 | 0.00 | 84 | 1013.2 |
| 20260502115919 | 49 | 101 | 0.0 | 4.0 | 0.00 | 0.00 | 0.00 | 83 | 1013.3 |
| 20260502115416 | 49 | 88 | 0.0 | 1.0 | 0.00 | 0.00 | 0.00 | 82 | 1013.5 |
| 20260502114912 | 49 | 72 | 0.0 | 1.0 | 0.00 | 0.00 | 0.00 | 83 | 1013.4 |
| 20260502114409 | 48 | 130 | 0.0 | 0.0 | 0.00 | 0.00 | 0.00 | 84 | 1013.2 |
| 20260502113906 | 48 | 92 | 0.0 | 0.0 | 0.00 | 0.00 | 0.00 | 84 | 1013.3 |
| 20260502113404 | 48 | 108 | 0.0 | 0.0 | 0.00 | 0.00 | 0.00 | 84 | 1013.2 |
| 20260502112902 | 48 | 94 | 0.0 | 1.0 | 0.00 | 0.00 | 0.00 | 84 | 1013.3 |
| 20260502112359 | 47 | 140 | 0.0 | 1.0 | 0.00 | 0.00 | 0.00 | 85 | 1013.4 |
| 20260502111857 | 47 | 102 | 0.0 | 0.0 | 0.00 | 0.00 | 0.00 | 86 | 1013.2 |
| 20260502111354 | 47 | 100 | 0.0 | 0.0 | 0.00 | 0.00 | 0.00 | 86 | 1013.1 |
| 20260502110851 | 46 | 101 | 0.0 | 0.0 | 0.00 | 0.00 | 0.00 | 86 | 1013.0 |
| 20260502110349 | 46 | 102 | 0.0 | 0.0 | 0.00 | 0.00 | 0.00 | 86 | 1013.1 |
| 20260502105846 | 46 | 102 | 0.0 | 0.0 | 0.00 | 0.00 | 0.00 | 86 | 1013.2 |
| 20260502105343 | 46 | 97 | 0.0 | 0.0 | 0.00 | 0.00 | 0.00 | 86 | 1013.1 |
| 20260502104841 | 46 | 98 | 0.0 | 0.0 | 0.00 | 0.00 | 0.00 | 86 | 1013.0 |
| 20260502104338 | 46 | 89 | 0.0 | 0.0 | 0.00 | 0.00 | 0.00 | 86 | 1013.2 |
| 20260502103835 | 46 | 102 | 0.0 | 0.0 | 0.00 | 0.00 | 0.00 | 86 | 1013.0 |
| 20260502103333 | 46 | 95 | 0.0 | 0.0 | 0.00 | 0.00 | 0.00 | 86 | 1012.9 |
| 20260502102830 | 46 | 103 | 0.0 | 0.0 | 0.00 | 0.00 | 0.00 | 86 | 1013.0 |
| 20260502102326 | 46 | 111 | 0.0 | 1.0 | 0.00 | 0.00 | 0.00 | 86 | 1012.9 |
| 20260502101824 | 46 | 81 | 0.0 | 0.0 | 0.00 | 0.00 | 0.00 | 86 | 1012.8 |
| 20260502101322 | 46 | 77 | 0.0 | 1.0 | 0.00 | 0.00 | 0.00 | 86 | 1012.9 |
| 20260502100820 | 45 | 86 | 0.0 | 0.0 | 0.00 | 0.00 | 0.00 | 86 | 1013.0 |
| 20260502100319 | 45 | 78 | 0.0 | 0.0 | 0.00 | 0.00 | 0.00 | 86 | 1012.8 |
| 20260502091253 | 45 | 92 | 0.0 | 0.0 | 0.00 | 0.00 | 0.00 | 85 | 1012.5 |
| 20260502090750 | 45 | 75 | 0.0 | 0.0 | 0.00 | 0.00 | 0.00 | 85 | 1012.7 |
| 20260502090246 | 45 | 76 | 0.0 | 0.0 | 0.00 | 0.00 | 0.00 | 85 | 1012.7 |
| 20260502071147 | 46 | 95 | 0.0 | 0.0 | 0.00 | 0.00 | 0.00 | 78 | 1012.5 |
| 20260502070645 | 46 | 95 | 0.0 | 0.0 | 0.00 | 0.00 | 0.00 | 77 | 1012.7 |
| 20260502070143 | 46 | 95 | 0.0 | 0.0 | 0.00 | 0.00 | 0.00 | 76 | 1012.7 |
| 20260502065641 | 47 | 95 | 0.0 | 0.0 | 0.00 | 0.00 | 0.00 | 75 | 1012.6 |
| 20260502065138 | 47 | 95 | 0.0 | 0.0 | 0.00 | 0.00 | 0.00 | 74 | 1012.5 |
| 20260502064637 | 47 | 86 | 0.0 | 0.0 | 0.00 | 0.00 | 0.00 | 73 | 1012.7 |
| 20260502064134 | 48 | 86 | 0.0 | 0.0 | 0.00 | 0.00 | 0.00 | 72 | 1012.6 |
| 20260502063631 | 48 | 86 | 0.0 | 0.0 | 0.00 | 0.00 | 0.00 | 71 | 1012.8 |
| 20260502063129 | 48 | 95 | 0.0 | 1.0 | 0.00 | 0.00 | 0.00 | 71 | 1012.8 |
| 20260502062626 | 49 | 84 | 0.0 | 1.0 | 0.00 | 0.00 | 0.00 | 70 | 1012.9 |
| 20260502062123 | 49 | 85 | 0.0 | 0.0 | 0.00 | 0.00 | 0.00 | 70 | 1012.9 |
| 20260502061622 | 49 | 86 | 0.0 | 0.0 | 0.00 | 0.00 | 0.00 | 69 | 1012.9 |
| 20260502061119 | 50 | 42 | 0.0 | 1.0 | 0.00 | 0.00 | 0.00 | 68 | 1012.7 |
| 20260502060619 | 50 | 79 | 0.0 | 2.0 | 0.00 | 0.00 | 0.00 | 67 | 1012.9 |
| 20260502060116 | 50 | 86 | 0.0 | 0.0 | 0.00 | 0.00 | 0.00 | 67 | 1012.8 |
| 20260502055614 | 50 | 98 | 0.0 | 1.0 | 0.00 | 0.00 | 0.00 | 67 | 1012.9 |
| 20260502055111 | 50 | 87 | 0.0 | 2.0 | 0.00 | 0.00 | 0.00 | 66 | 1012.8 |
| 20260502054610 | 50 | 89 | 0.0 | 2.0 | 0.00 | 0.00 | 0.00 | 65 | 1013.0 |
| 20260502054107 | 50 | 87 | 0.0 | 0.0 | 0.00 | 0.00 | 0.00 | 66 | 1013.0 |
| 20260502053604 | 50 | 102 | 0.0 | 2.0 | 0.00 | 0.00 | 0.00 | 65 | 1013.0 |
| 20260502053101 | 50 | 82 | 0.0 | 2.0 | 0.00 | 0.00 | 0.00 | 65 | 1013.0 |
| 20260502052600 | 50 | 95 | 0.0 | 0.0 | 0.00 | 0.00 | 0.00 | 65 | 1013.1 |
| 20260502052057 | 50 | 120 | 0.0 | 1.0 | 0.00 | 0.00 | 0.00 | 65 | 1013.2 |
| 20260502051555 | 50 | 77 | 0.0 | 0.0 | 0.00 | 0.00 | 0.00 | 65 | 1013.4 |
| 20260502051053 | 50 | 56 | 1.0 | 1.0 | 0.00 | 0.00 | 0.00 | 65 | 1013.2 |
| 20260502050549 | 50 | 113 | 0.0 | 0.0 | 0.00 | 0.00 | 0.00 | 65 | 1013.1 |
| 20260502050046 | 50 | 66 | 0.0 | 2.0 | 0.00 | 0.00 | 0.00 | 65 | 1013.0 |
| 20260502045543 | 50 | 80 | 0.0 | 0.0 | 0.00 | 0.00 | 0.00 | 65 | 1013.0 |
| 20260502045040 | 50 | 85 | 0.0 | 0.0 | 0.00 | 0.00 | 0.00 | 65 | 1013.0 |
| 20260502044536 | 50 | 81 | 0.0 | 1.0 | 0.00 | 0.00 | 0.00 | 65 | 1013.2 |
| 20260502044033 | 50 | 120 | 0.0 | 0.0 | 0.00 | 0.00 | 0.00 | 66 | 1013.1 |
| 20260502043531 | 50 | 100 | 0.0 | 0.0 | 0.00 | 0.00 | 0.00 | 66 | 1013.1 |
| 20260502043026 | 50 | 73 | 0.0 | 1.0 | 0.00 | 0.00 | 0.00 | 66 | 1013.1 |
| 20260502042522 | 50 | 89 | 0.0 | 0.0 | 0.00 | 0.00 | 0.00 | 67 | 1013.1 |
| 20260502042020 | 50 | 84 | 0.0 | 3.0 | 0.00 | 0.00 | 0.00 | 67 | 1013.1 |
| 20260502041517 | 50 | 77 | 0.0 | 1.0 | 0.00 | 0.00 | 0.00 | 67 | 1013.2 |
| 20260502041014 | 50 | 87 | 0.0 | 1.0 | 0.00 | 0.00 | 0.00 | 67 | 1013.3 |
| 20260502040511 | 50 | 87 | 0.0 | 0.0 | 0.00 | 0.00 | 0.00 | 67 | 1013.2 |
| 20260502040008 | 49 | 88 | 0.0 | 0.0 | 0.00 | 0.00 | 0.00 | 68 | 1013.3 |
| 20260502035503 | 49 | 88 | 0.0 | 0.0 | 0.00 | 0.00 | 0.00 | 68 | 1013.3 |
| 20260502035001 | 49 | 96 | 0.0 | 0.0 | 0.00 | 0.00 | 0.00 | 67 | 1013.4 |
| 20260502034459 | 49 | 92 | 0.0 | 0.0 | 0.00 | 0.00 | 0.00 | 68 | 1013.3 |
| 20260502033958 | 49 | 108 | 0.0 | 0.0 | 0.00 | 0.00 | 0.00 | 68 | 1013.3 |
| 20260502033455 | 49 | 90 | 0.0 | 0.0 | 0.00 | 0.00 | 0.00 | 68 | 1013.3 |
| 20260502032951 | 49 | 90 | 0.0 | 0.0 | 0.00 | 0.00 | 0.00 | 68 | 1013.3 |
| 20260502032448 | 49 | 90 | 0.0 | 0.0 | 0.00 | 0.00 | 0.00 | 68 | 1013.2 |
| 20260502031944 | 49 | 90 | 0.0 | 0.0 | 0.00 | 0.00 | 0.00 | 69 | 1013.4 |
| 20260502031443 | 49 | 69 | 0.0 | 1.0 | 0.00 | 0.00 | 0.00 | 68 | 1013.4 |
| 20260502030941 | 49 | 92 | 0.0 | 0.0 | 0.00 | 0.00 | 0.00 | 69 | 1013.2 |
| 20260502030439 | 49 | 73 | 0.0 | 0.0 | 0.00 | 0.00 | 0.00 | 68 | 1013.3 |
| 20260502025937 | 49 | 101 | 0.0 | 0.0 | 0.00 | 0.00 | 0.00 | 68 | 1013.3 |
| 20260502025433 | 49 | 100 | 0.0 | 0.0 | 0.00 | 0.00 | 0.00 | 68 | 1013.4 |
| 20260502024931 | 49 | 95 | 0.0 | 0.0 | 0.00 | 0.00 | 0.00 | 68 | 1013.0 |
| 20260502024429 | 49 | 94 | 0.0 | 0.0 | 0.00 | 0.00 | 0.00 | 67 | 1013.2 |
| 20260502023927 | 49 | 90 | 0.0 | 0.0 | 0.00 | 0.00 | 0.00 | 67 | 1013.0 |
| 20260502023424 | 49 | 97 | 0.0 | 0.0 | 0.00 | 0.00 | 0.00 | 66 | 1013.0 |
| 20260502022922 | 49 | 92 | 0.0 | 0.0 | 0.00 | 0.00 | 0.00 | 66 | 1013.2 |
| 20260502022418 | 50 | 92 | 0.0 | 0.0 | 0.00 | 0.00 | 0.00 | 65 | 1013.2 |
| 20260502021915 | 50 | 92 | 0.0 | 0.0 | 0.00 | 0.00 | 0.00 | 64 | 1013.2 |
| 20260502021412 | 50 | 70 | 0.0 | 0.0 | 0.00 | 0.00 | 0.00 | 64 | 1013.3 |
| 20260502020909 | 50 | 66 | 0.0 | 0.0 | 0.00 | 0.00 | 0.00 | 64 | 1013.2 |
| 20260502020408 | 50 | 81 | 0.0 | 0.0 | 0.00 | 0.00 | 0.00 | 63 | 1013.3 |
| 20260502015904 | 50 | 90 | 0.0 | 0.0 | 0.00 | 0.00 | 0.00 | 61 | 1013.1 |
| 20260502015401 | 51 | 76 | 0.0 | 0.0 | 0.00 | 0.00 | 0.00 | 60 | 1013.3 |
| 20260502014858 | 51 | 88 | 0.0 | 0.0 | 0.00 | 0.00 | 0.00 | 59 | 1013.0 |
| 20260502014355 | 51 | 84 | 0.0 | 0.0 | 0.00 | 0.00 | 0.00 | 57 | 1012.9 |
| 20260502013851 | 51 | 89 | 0.0 | 0.0 | 0.00 | 0.00 | 0.00 | 57 | 1012.9 |
| 20260502013347 | 52 | 83 | 0.0 | 1.0 | 0.00 | 0.00 | 0.00 | 56 | 1012.9 |
| 20260502012844 | 52 | 91 | 0.0 | 0.0 | 0.00 | 0.00 | 0.00 | 54 | 1013.1 |
| 20260502012342 | 52 | 91 | 0.0 | 0.0 | 0.00 | 0.00 | 0.00 | 54 | 1012.9 |
| 20260502011839 | 53 | 84 | 0.0 | 0.0 | 0.00 | 0.00 | 0.00 | 53 | 1012.9 |
| 20260502011334 | 53 | 95 | 0.0 | 1.0 | 0.00 | 0.00 | 0.00 | 52 | 1012.7 |
| 20260502010832 | 52 | 140 | 0.0 | 1.0 | 0.00 | 0.00 | 0.00 | 52 | 1012.8 |
| 20260502010328 | 52 | 75 | 0.0 | 0.0 | 0.00 | 0.00 | 0.00 | 51 | 1012.8 |